Regional Weather Roundup
Issued by NWS

Home | Current Version | Previous Version | Graphics & Text | Print | Product List | Glossary On
Versions: 1 2 3 4 5 6 7 8 9 10 11 12 13 14 15 16 17 18 19 20 21 22 23 24 25 26 27 28 29 30 31 32 33 34 35 36 37 38 39 40 41 42 43 44 45 46 47 48 49 50
000
ASUS43 KIND 301909
RWRIN

WEATHER ROUNDUP FOR INDIANA
NATIONAL WEATHER SERVICE INDIANAPOLIS IN
300 PM EDT WED JUL 30 2014

NOTE: "FAIR" INDICATES FEW OR NO CLOUDS BELOW 12,000 FEET WITH NO
SIGNIFICANT WEATHER AND/OR OBSTRUCTIONS TO VISIBILITY.

* - STATION DOES NOT REPORT WEATHER SUCH AS PRECIPITATION OR FOG.

+ - STATION NOT QUALITY CONTROLLED BY THE NATIONAL WEATHER SERVICE.
    USE DATA WITH CAUTION...ESPECIALLY DEWPOINT AND RELATIVE
    HUMIDITY OBSERVATIONS.

INZ001>003-010>013-019-020-302000-
NORTHWEST INDIANA

CITY           SKY/WX    TMP DP  RH WIND       PRES   REMARKS
GARY /AIRPORT/ MOSUNNY   75  59  57 NE9       30.03F
KNOX *+        MOSUNNY   76  56  50 NW7       30.02F
LA PORTE +     SUNNY     74  54  49 NW7       30.04S
MICHIGAN CITY+ SUNNY     72  55  56 NW7       30.04S
MONTICELLO +   MOSUNNY   76  61  60 W8        30.03F
RENSSELAER +   PTSUNNY   77  61  57 W10       30.03F
VALPARAISO     CLOUDY    77  57  50 W8        30.03F

$$

LMZ046-743>745-302000-
SOUTHERN LAKE MICHIGAN

STATION/POSITION TIME  TEMP WIND        PRES
                       AIR  DIR/SP/G
                 (UTC) (F)  (DEG/KT/KT) (MB)
MICHIGAN CITY    1900   68  350/  6/  7   N/A

$$

INZ004-005-014>016-021>024-302000-
NORTH CENTRAL INDIANA

CITY           SKY/WX    TMP DP  RH WIND       PRES   REMARKS
GOSHEN         MOSUNNY   76  58  53 W13G20    30.02F
LOGANSPORT +   MOSUNNY   77  57  50 W10       30.05F
PERU/GRISSOM   MOSUNNY   77  62  60 W12G17    30.04F
ROCHESTER +    MOSUNNY   75  57  53 NW6       30.04S
SOUTH BEND     MOSUNNY   76  55  48 W12       30.03F
WARSAW +       PTSUNNY   73  59  60 W9G16     30.03F

$$

INZ006>009-017-018-025>027-302000-
NORTHEAST INDIANA

CITY           SKY/WX    TMP DP  RH WIND       PRES   REMARKS
ANGOLA *+      MOSUNNY   77  57  50 W9        30.02S
AUBURN +       MOSUNNY   77  55  47 W7        30.03S
FORT WAYNE     PTSUNNY   75  56  51 W12       30.04F
HUNTINGTON +   PTSUNNY   76  58  54 W7        30.03S

$$

INZ028-029-035-036-043>045-051>053-302000-
WEST CENTRAL INDIANA

CITY           SKY/WX    TMP DP  RH WIND       PRES   REMARKS
GREENCASTLE +  MOSUNNY   75  59  57 CALM      30.06S
LAFAYETTE      MOSUNNY   78  60  53 W10G18    30.03F
TERRE HAUTE    MOSUNNY   80  58  46 W9        30.05F

$$

INZ030>032-037>040-046>048-054>057-064-065-302000-
CENTRAL INDIANA

CITY           SKY/WX    TMP DP  RH WIND       PRES   REMARKS
ANDERSON       MOSUNNY   73  57  56 W12G17    30.06F
CP ATTERBURY + LGT RAIN  72  61  68 W6        30.06F
COLUMBUS       PTSUNNY   77  57  50 W10G16    30.05F
GREENWOOD *+   MOSUNNY   79  64  61 W8        30.05
INDIANAPOLIS   LGT RAIN  73  61  65 NW9       30.05S
-EAGLE CREEK   PTSUNNY   76  59  55 NW9       30.04F
KOKOMO *+      MOSUNNY   77  61  57 W10       30.04F
MARION +       MOSUNNY   75  58  55 NW9       30.04F
MT COMFORT *+  MOSUNNY   79  63  57 W13       30.05F
SHELBYVILLE    MOSUNNY   79  62  56 W13       30.04F
ZIONSVILLE +   MOSUNNY   78  59  52 W10       30.06S

$$

INZ033-034-041-042-049-050-058-059-302000-
EAST CENTRAL INDIANA

CITY           SKY/WX    TMP DP  RH WIND       PRES   REMARKS
MUNCIE         MOSUNNY   76  58  53 W12       30.04F

$$

INZ060-061-067>069-081>083-085>088-302000-
SOUTHWEST INDIANA

CITY           SKY/WX    TMP DP  RH WIND       PRES   REMARKS
EVANSVILLE     MOSUNNY   81  54  39 NW8       30.08F
WASHINGTON +   MOSUNNY   78  61  56 W6        30.07F

$$

INZ062-063-066-070>080-084-089>092-302000-
SOUTH CENTRAL AND SOUTHEAST INDIANA

CITY           SKY/WX    TMP DP  RH WIND       PRES   REMARKS
BLOOMINGTON    MOSUNNY   76  59  55 W9        30.07F
NORTH VERNON + MOSUNNY   79  59  50 SW10      30.07F

$$




USA.gov is the U.S. government's official web portal to all federal, state and local government web resources and services.